Back to catalog

THOR ABLESTAR DEB

AliveLEO
NORAD 119·DEBRIS·🇺🇸 United States

Launched Jun 29, 1961 from Cape Canaveral Space Force Station

Loading…

Next Passes (next 24 hours)

TLE

FreshSource: Space-Track

Epoch: Sep 14, 2026, 10:17 UTC

1 00119U 61015D   26257.42877924  .00000340  00000-0  16377-3 0  9993
2 00119  66.7267 156.3381 0102433 198.6821 161.0506 14.27424170371059

Track THOR ABLESTAR DEB in real time with AllMySat

Download on the App Store